Location: Arroyo de San Miguel
(40.9167°N, 4.6667°W)
Time: 15:30:17
(UTC+00:00)

DELTA 2 DEB (DPAF) - Pass Details

Date: 19 May 2025
Orbit: 538 x 548 km, 98.4° (Epoch: 17 June)

Event Time Altitude Azimuth Distance (km) Brightness Sun altitude
Rises 22:41:16 0° 7° (N) 2,723 8.3 -25.3°
Reaches altitude 10° 22:43:27 10° 2° (N) 1,823 7.3 -25.5°
Enters shadow 22:47:03 48° 298° (WNW) 718 4.6 -25.8°
